Track STARLINK-2436 now! 10-day predictions STARLINK-2436 is classified as:
1 48101U 21027K 22187.10844361 -.00000051 00000-0 15466-4 0 9996 2 48101 53.0561 68.7162 0001591 70.3022 289.8139 15.06392889 69800